Regional Weather Roundup
Issued by NWS Newport/Morehead, NC

Current Version | Previous Version | Graphics & Text | Print | Product List | Glossary On
Versions: 1 2 3 4 5 6 7 8 9 10 11 12 13 14 15 16 17 18 19 20 21 22 23 24 25 26 27 28 29 30 31 32 33 34 35 36 37 38 39 40 41 42 43 44 45 46 47 48 49 50
039 ASUS42 KMHX 281425 RWRMHX WEATHER ROUNDUP FOR EASTERN NORTH CAROLINA NATIONAL WEATHER SERVICE NEWPORT/MOREHEAD CITY NC 1000 AM EDT THU APR 28 2016 NOTE: "FAIR" INDICATES FEW OR NO CLOUDS BELOW 12,000 FEET WITH NO SIGNIFICANT WEATHER AND/OR OBSTRUCTIONS TO VISIBILITY NCZ015>017-031-032-045>047-102-103-281500- NORTH COAST CITY SKY/WX TMP DP RH WIND PRES REMARKS EDENTON FAIR 73 67 83 SW7 29.94S ELIZABETH CITY CLOUDY 63 61 93 E9 29.95S KITTY HAWK CLOUDY 63 62 97 E5 29.95R FOG MANTEO NOT AVBL $$ NCZ045>047-081-094-103-104-281500- CENTRAL COAST CITY SKY/WX TMP DP RH WIND PRES REMARKS FRISCO PTSUNNY 71 67 87 SW9 29.96S SWANQUARTER NOT AVBL $$ NCZ095-097-098-100-101-281500- SOUTHERN COAST CITY SKY/WX TMP DP RH WIND PRES REMARKS BEAUFORT FAIR 73 68 84 SW14 29.97R CEDAR ISLAND NOT AVBL JACKSONVILLE FAIR 78 65 63 SW13 29.94F PINEY ISLAND FAIR N/A N/A N/A SW16G24 29.96S WILMINGTON PTSUNNY 74 67 78 SW14G22 29.96S $$ NCZ011>013-027>030-043-044-078>080-089-090>093-098-281500- COASTAL PLAIN CITY SKY/WX TMP DP RH WIND PRES REMARKS AHOSKIE FAIR 66 65 94 N3 29.93R CLINTON FAIR 74 67 79 S5 29.94F ELIZABETHTOWN PTSUNNY 73 65 75 SW5 29.95S GOLDSBORO FAIR 73 70 88 SW10 29.92S GREENVILLE FAIR 73 66 78 SW8 29.95S HAVELOCK PTSUNNY 75 67 76 S10 29.96S KENANSVILLE FAIR 75 65 71 SW5 29.95S KINSTON FAIR 73 66 78 SW10 29.94S NEW BERN FAIR 77 66 68 SW10 29.95S RICHLANDS PTSUNNY 77 68 73 SW12 29.95S ROCKY MOUNT FAIR 71 64 78 S7 29.92S WASHINGTON FAIR 74 67 76 SW9 29.93S WHITEVILLE FAIR 73 66 77 SW7 29.95S $$ AMZ130-135-150-152-154-156-158-170-250-252-270-ANZ085-086-088-633-658-670-281500- MARINE OBSERVATIONS STATION/POSITION TIME TEMP WIND PRES WAVE SWELL AIR SEA DIR/SP/G HT/PER HT/PER (UTC) (F) (DEG/KT/KT) (MB) (FT/S) (FT/S) CHESAPEAKE LIGHT 1400 54 90/ 15/ 16 1015.1 64 E VA BEACH 1350 54 54 110/ 6/ 8 1014.3 3/ 6 3/ 6 DUCK 1400 57 64 60/ 9/ 10 1014.0 2 E DUCK 1311 57 N/A 3/ 6 OREGON INLET 1400 61 62 50/ 7/ 9 1013.9 13E OREGON INLT 1400 60 N/A 3/ 6 3/ 6 HATTERAS CG 1400 70 67 210/ 8/ 11 1014.4 DIAMOND BUOY 1350 71 71 260/ 12/ 12 1014.8 3/ 6 2/ 6 CAPE LOOKOUT 1400 73 210/ 9/ 12 1014.5 BEAUFORT LAB 1400 73 67 220/ 6/ 9 1013.9 30 SE NEW RVR IN 1325 66 N/A 4/ 5 27 SE WRIGHTSVLE 1408 71 69 220/ 8/ 12 1018.1 5 SE WRIGHTSVLE 1408 70 66 210/ 10/ 14 1015.3 225 S CAPE HAT 1350 71 71 180/ 6/ 6 1017.8 2/11 2/11 41 SE CHARLESTON 1350 72 71 210/ 10/ 12 1014.9 3/ 5 2/ 5 $$

USA.gov is the U.S. government's official web portal to all federal, state and local government web resources and services.